Jacksonville, IL

8:37 PM CDT on March 25, 2017 (GMT -0500)
Jacksonville Municipal

Weather History for KIJX - September, 2014

Change the Weather History Date:

Thursday, September 4, 2014

  Actual Average (KSPI) Record (KSPI)
Temperature  
Mean Temperature 83 °F -  
Max Temperature 94 °F 81 °F 100 °F (1954)
Min Temperature 73 °F 59 °F 42 °F (1974)
Cooling Degree Days 18    
Growing Degree Days 33 (Base 50)    
Moisture  
Dew Point 72 °F    
Average Humidity 72    
Maximum Humidity 88    
Minimum Humidity 55    
Precipitation  
Precipitation 0.00 in - - ()
Sea Level Pressure  
Sea Level Pressure 29.98 in    
Wind  
Wind Speed 10 mph (South)    
Max Wind Speed 14 mph    
Max Gust Speed 20 mph    
Visibility 10 miles    
Events Thunderstorm    
Averages and records for this station are not official NWS values.
T = Trace of Precipitation, MM = Missing Value Source: NWS Daily Summary

Daily Weather History Graph

Daily Weather History Graph

Search for Another Location

Airport or City:

Trip Planner

Search our weather history database for the weather conditions in past years. The results will help you decide how hot, cold, wet, or windy it might be!

Date:

Astronomy

Sep. 04, 2014 Rise Set
Actual Time 6:31 AM CDT 7:27 PM CDT
Civil Twilight 6:04 AM CDT 7:54 PM CDT
Nautical Twilight 5:31 AM CDT 8:27 PM CDT
Astronomical Twilight 4:57 AM CDT 9:01 PM CDT
Moon 4:04 PM CDT (9/4) 1:23 AM CDT (9/4)
Length of Visible Light 13h 50m
Length of Day
12h 55m
Waxing Gibbous, 74% of the Moon is Illuminated
Sep 4
Waxing Gibbous
Sep 8
Full
Sep 15
Last Quarter
Sep 24
New
Oct 1
First Quarter

Hourly Weather History & Observations

Time (CDT) Temp. Heat Index Dew Point Humidity Pressure Visibility Wind Dir Wind Speed Gust Speed Precip Events Conditions
12:15 AM 76.6 °F - 69.8 °F 79% 29.98 in 10.0 mi SSE 10.4 mph 17.3 mph N/A   Clear
12:35 AM 76.6 °F - 69.8 °F 79% 29.98 in 10.0 mi SSE 10.4 mph 18.4 mph N/A   Clear
12:55 AM 76.3 °F - 69.8 °F 80% 29.98 in 10.0 mi SSE 11.5 mph 16.1 mph N/A   Clear
1:15 AM 76.1 °F - 69.8 °F 81% 29.98 in 10.0 mi SSE 10.4 mph 16.1 mph N/A   Clear
1:35 AM 76.1 °F - 69.8 °F 81% 29.98 in 10.0 mi SSE 11.5 mph 16.1 mph N/A   Clear
1:55 AM 76.1 °F - 69.8 °F 81% 29.98 in 10.0 mi SSE 11.5 mph - N/A   Clear
2:15 AM 75.9 °F - 69.8 °F 81% 29.98 in 10.0 mi South 10.4 mph 16.1 mph N/A   Clear
2:35 AM 75.6 °F - 69.8 °F 82% 29.97 in 10.0 mi SSE 11.5 mph - N/A   Clear
2:55 AM 75.4 °F - 69.8 °F 83% 29.97 in 10.0 mi South 10.4 mph - N/A   Clear
3:15 AM 75.2 °F - 69.8 °F 83% 29.97 in 10.0 mi South 9.2 mph 16.1 mph N/A   Clear
3:35 AM 75.0 °F - 69.4 °F 83% 29.98 in 10.0 mi South 6.9 mph - N/A   Clear
3:55 AM 74.8 °F - 69.4 °F 83% 29.98 in 10.0 mi South 9.2 mph - N/A   Scattered Clouds
4:15 AM 74.7 °F - 69.4 °F 84% 29.97 in 10.0 mi South 9.2 mph - N/A   Mostly Cloudy
4:35 AM 74.3 °F - 69.4 °F 85% 29.97 in 10.0 mi South 9.2 mph - N/A   Clear
4:55 AM 74.3 °F - 69.4 °F 85% 29.97 in 10.0 mi South 6.9 mph - N/A   Clear
5:15 AM 74.3 °F - 69.4 °F 85% 29.97 in 10.0 mi South 8.1 mph - N/A   Clear
5:35 AM 74.3 °F - 69.4 °F 85% 29.98 in 10.0 mi South 6.9 mph - N/A   Clear
5:55 AM 73.9 °F - 69.6 °F 86% 29.98 in 10.0 mi South 6.9 mph - N/A   Clear
6:15 AM 73.8 °F - 69.8 °F 87% 29.98 in 10.0 mi South 8.1 mph - N/A   Clear
6:35 AM 73.8 °F - 69.8 °F 87% 29.98 in 10.0 mi South 9.2 mph - N/A   Clear
6:55 AM 73.6 °F - 69.8 °F 88% 29.98 in 10.0 mi South 9.2 mph - N/A   Clear
7:15 AM 73.8 °F - 69.8 °F 87% 29.98 in 10.0 mi South 9.2 mph - N/A   Clear
7:35 AM 74.1 °F - 69.8 °F 86% 30.00 in 10.0 mi South 8.1 mph - N/A Thunderstorm Clear
7:55 AM 75.2 °F - 70.3 °F 85% 30.01 in 10.0 mi South 4.6 mph - N/A   Clear
8:15 AM 75.9 °F - 70.7 °F 84% 30.01 in 10.0 mi SSE 5.8 mph - N/A   Scattered Clouds
8:35 AM 76.3 °F - 70.9 °F 83% 30.02 in 10.0 mi NE 9.2 mph - N/A   Mostly Cloudy
8:55 AM 75.7 °F - 70.9 °F 85% 30.02 in 10.0 mi NE 10.4 mph - N/A   Mostly Cloudy
9:15 AM 76.5 °F - 71.1 °F 83% 30.02 in 10.0 mi ESE 8.1 mph - N/A   Scattered Clouds
9:35 AM 78.3 °F - 72.3 °F 82% 30.01 in 10.0 mi ESE 9.2 mph - N/A   Clear
9:55 AM 79.9 °F - 72.3 °F 78% 30.01 in 10.0 mi ESE 9.2 mph - N/A   Clear
10:15 AM 81.9 °F 87.0 °F 73.0 °F 74% 30.02 in 10.0 mi SE 9.2 mph - N/A   Clear
10:35 AM 83.8 °F 90.8 °F 73.8 °F 72% 30.01 in 10.0 mi South 8.1 mph - N/A   Clear
10:55 AM 86.0 °F 93.4 °F 73.4 °F 66% 30.01 in 10.0 mi South 8.1 mph - N/A   Clear
11:15 AM 86.0 °F 94.2 °F 74.5 °F 68% 30.00 in 10.0 mi SSW 9.2 mph - N/A   Scattered Clouds
11:35 AM 87.1 °F 95.9 °F 74.5 °F 66% 30.00 in 10.0 mi South 9.2 mph - N/A   Clear
11:55 AM 87.4 °F 96.2 °F 74.3 °F 65% 29.99 in 10.0 mi South 10.4 mph 16.1 mph N/A   Clear
12:15 PM 88.7 °F 98.2 °F 74.8 °F 63% 29.99 in 10.0 mi South 10.4 mph - N/A   Clear
12:35 PM 90.0 °F 99.6 °F 74.3 °F 60% 29.99 in 10.0 mi South 10.4 mph - N/A   Clear
12:55 PM 91.0 °F 102.2 °F 75.6 °F 60% 29.99 in 10.0 mi South 8.1 mph - N/A   Clear
1:15 PM 91.4 °F 101.9 °F 74.8 °F 58% 29.99 in 7.0 mi SSE 12.7 mph 17.3 mph N/A   Clear
1:35 PM 92.1 °F 103.0 °F 74.8 °F 57% 29.99 in 10.0 mi South 11.5 mph - N/A   Clear
1:55 PM 92.7 °F 103.0 °F 74.3 °F 55% 29.98 in 10.0 mi South 9.2 mph - N/A   Clear
2:15 PM 92.3 °F 103.4 °F 75.0 °F 57% 29.98 in 10.0 mi South 11.5 mph - N/A   Scattered Clouds
2:35 PM 93.4 °F 104.8 °F 75.0 °F 55% 29.98 in 10.0 mi South 12.7 mph 17.3 mph N/A   Clear
2:55 PM 93.2 °F 104.3 °F 75.0 °F 55% 29.97 in 10.0 mi South 13.8 mph 17.3 mph N/A   Clear
3:15 PM 93.7 °F 105.7 °F 75.4 °F 55% 29.97 in 10.0 mi South 11.5 mph - N/A   Clear
3:35 PM 93.4 °F 105.5 °F 75.7 °F 56% 29.96 in 10.0 mi South 10.4 mph - N/A   Clear
3:55 PM 91.8 °F 102.1 °F 74.7 °F 57% 29.96 in 10.0 mi SSW 12.7 mph 17.3 mph N/A   Clear
4:15 PM 92.5 °F 103.9 °F 75.0 °F 57% 29.96 in 10.0 mi South 10.4 mph - N/A   Clear
4:35 PM 92.3 °F 103.4 °F 75.2 °F 57% 29.95 in 10.0 mi South 13.8 mph - N/A   Scattered Clouds
4:55 PM 92.1 °F 103.0 °F 75.0 °F 57% 29.95 in 10.0 mi SSW 10.4 mph - N/A   Scattered Clouds
5:15 PM 92.7 °F 103.7 °F 75.0 °F 56% 29.95 in 10.0 mi SSE 10.4 mph - N/A   Scattered Clouds
5:35 PM 92.7 °F 103.0 °F 74.3 °F 55% 29.96 in 10.0 mi SSW 10.4 mph - N/A   Scattered Clouds
5:55 PM 92.5 °F 103.2 °F 74.7 °F 56% 29.97 in 10.0 mi South 8.1 mph - N/A   Scattered Clouds
6:15 PM 90.7 °F 101.3 °F 75.2 °F 60% 29.97 in 10.0 mi South 5.8 mph - N/A   Scattered Clouds
6:35 PM 90.1 °F 100.6 °F 75.2 °F 61% 29.97 in 10.0 mi South 9.2 mph - N/A   Scattered Clouds
6:55 PM 88.9 °F 98.6 °F 74.8 °F 63% 29.96 in 10.0 mi South 6.9 mph - N/A   Clear
7:15 PM 87.8 °F 99.1 °F 76.5 °F 69% 29.96 in 10.0 mi South 10.4 mph - N/A   Clear
7:35 PM 86.4 °F 96.9 °F 76.5 °F 72% 29.95 in 10.0 mi South 12.7 mph 16.1 mph N/A   Clear
7:55 PM 85.5 °F 95.4 °F 76.3 °F 74% 29.95 in 10.0 mi South 10.4 mph 16.1 mph N/A   Clear
8:15 PM 85.3 °F 95.0 °F 76.1 °F 74% 29.95 in 10.0 mi South 12.7 mph 19.6 mph N/A   Clear
8:35 PM 84.6 °F 92.8 °F 75.0 °F 73% 29.95 in 10.0 mi South 12.7 mph 19.6 mph N/A   Clear
8:55 PM 83.7 °F 90.7 °F 74.3 °F 73% 29.96 in 10.0 mi South 10.4 mph - N/A   Clear
9:15 PM 82.9 °F 88.8 °F 73.2 °F 72% 29.97 in 10.0 mi South 10.4 mph - N/A   Clear
9:35 PM 82.4 °F 87.2 °F 71.8 °F 70% 29.97 in 10.0 mi South 11.5 mph 18.4 mph N/A   Clear
9:55 PM 81.3 °F 85.4 °F 71.1 °F 71% 29.98 in 10.0 mi South 9.2 mph - N/A   Clear
10:15 PM 81.3 °F 85.0 °F 70.2 °F 69% 29.98 in 10.0 mi SSW 10.4 mph - N/A   Clear
10:35 PM 81.0 °F 84.4 °F 70.0 °F 69% 29.98 in 10.0 mi South 10.4 mph 16.1 mph N/A   Clear
10:55 PM 80.6 °F 83.9 °F 70.0 °F 70% 29.99 in 10.0 mi South 9.2 mph 17.3 mph N/A   Clear
11:15 PM 79.3 °F - 70.2 °F 73% 30.00 in 10.0 mi South 8.1 mph - N/A   Clear
11:35 PM 78.8 °F - 70.2 °F 75% 30.01 in 10.0 mi SSW 6.9 mph - N/A   Clear
11:55 PM 78.4 °F - 70.5 °F 77% 30.01 in 10.0 mi SSW 8.1 mph - N/A   Clear